{"data":{"norad_id":57187,"intl_designator":"2023-091X","name":"SVYATOBOR 1 (RS60S)","alt_names":[],"object_type":"PAYLOAD","status":"ACTIVE","operator":null,"country":"CIS","launch_date":"2023-06-27","launch_site_code":"VOSTO","launch_vehicle":null,"mission":null,"orbit_class":"UNKNOWN","rcs_meters":null,"size_class":null,"mass_kg":null,"dimensions":null,"purposes":["comms"],"wikipedia_slug":null,"has_3d_model":false,"image_url":null,"decayed_at":null,"tle_current":{"epoch":"2026-05-25T04:19:48.840096Z","epoch_age_seconds":53415,"freshness":"FRESH","line1":"1 57187U 23091X   26145.18042639  .00009209  00000+0  35873-3 0  9992","line2":"2 57187  97.5101 208.8763 0010125 164.7106 195.4440 15.26155914160802","mean_motion":15.26155914,"eccentricity":0.0010125,"inclination_deg":97.5101,"raan_deg":208.8763,"arg_perigee_deg":164.7106,"mean_anomaly_deg":195.444,"bstar":0.00035873,"rev_number":16080,"period_min":94.354710864751,"perigee_km":480.36536554497,"apogee_km":494.26790916061,"semimajor_km":6865.4536373528,"source":"CELESTRAK","updated_at":"2026-05-25T13:38:23.292249Z"}}}